Wind_Speed
11 14 16 17 20 37 27 35 33 37 38 33 33 34 32 31 30 32 33 35 35 33 35 34 36 38 38 40 41 44 47 51 53 56 60 62 64 67 68 70 70 67 61
12 12 14 17 24 37 24 29 37 33 37 36 30 25 30 32 30 26 25 23 28 26 30 35 35 37 39 42 44 45 46 48 52 52 53 55 51 49 49 50 49 49 47
8 11 12 14 19 24 23 26 36 39 34 26 34 33 33 30 28 30 33 29 29 34 38 41 40 41 44 46 46 47 48 50 48 45 43 43 43 43 42 43 43 44 46
7 8 11 10 12 15 20 23 26 34 30 27 28 29 32 35 30 30 29 30 31 31 32 35 35 37 37 38 37 36 35 34 33 34 37 39 40 40 39 37 38 41 40
9 8 9 10 11 11 14 16 18 19 20 20 20 20 22 24 24 23 23 23 21 19 18 17 18 21 24 25 27 29 30 31 33 36 35 36 37 35 35 38 37 38 41
6 11 11 9 14 13 12 11 10 12 15 15 13 12 14 14 11 12 11 11 14 16 15 18 22 24 25 27 28 27 28 29 30 31 31 27 31 36 39 40 42 45 48
3 4 11 16 13 12 13 16 13 15 16 11 12 14 15 14 13 15 16 17 17 18 18 18 18 19 21 22 23 24 26 27 27 26 29 33 38 41 41 44 46 49 52
3 1 4 10 14 14 15 18 20 19 17 16 14 14 15 14 14 14 14 14 15 15 16 17 18 19 21 20 20 22 23 25 28 32 38 42 43 43 48 50 53 55 59
5 6 5 6 8 10 11 11 13 17 19 16 15 15 14 12 11 13 14 13 12 12 16 19 21 21 20 22 22 24 26 30 33 38 41 45 50 53 55 58 62 65 69
9 9 9 11 9 9 10 9 9 11 13 12 12 12 11 10 10 10 10 10 13 14 15 18 19 23 27 28 30 33 37 39 42 45 48 52 57 62 64 67 69 69 74
14 14 12 12 15 14 13 12 13 13 13 13 12 11 9 10 9 9 11 15 14 16 20 22 25 27 31 34 36 39 43 45 49 53 56 60 67 68 69 72 75 78 82
12 15 15 15 15 15 17 18 17 16 14 15 13 10 10 9 11 13 16 18 19 23 26 29 30 32 33 34 36 40 43 48 52 55 59 63 68 72 78 79 78 79 79
10 8 9 13 15 16 17 16 17 17 16 16 17 15 17 18 19 19 20 23 26 31 34 37 38 39 42 47 50 52 51 53 56 59 62 67 72 76 78 80 80 79 77
13 11 13 11 11 12 12 14 14 16 17 19 22 23 23 23 23 25 27 30 33 36 39 44 48 50 51 51 51 52 55 57 63 67 72 73 74 74 77 79 80 81 84
19 19 18 18 17 15 16 17 16 17 20 22 24 26 28 28 29 33 36 38 42 47 50 52 53 49 48 51 56 59 61 65 71 73 76 76 75 76 76 78 83 86 90
22 23 24 25 25 23 22 21 23 25 28 30 32 33 35 37 38 41 44 48 51 51 49 48 48 50 49 53 59 66 73 75 76 80 78 80 82 82 81 84 89 92 97
28 27 27 28 29 30 30 30 31 32 35 38 39 39 40 42 44 41 45 47 47 49 54 55 57 59 56 60 68 74 73 76 78 83 84 87 88 87 89 94 97 103 107
29 31 32 33 33 33 35 36 36 37 40 41 40 43 43 41 38 37 37 39 48 53 56 63 64 64 68 73 83 81 83 87 90 90 91 92 93 95 97 100 105 109 112
27 29 32 33 33 34 37 38 38 40 41 42 41 41 39 42 39 40 42 41 52 50 57 62 61 68 81 84 82 85 91 94 93 94 95 97 100 103 105 109 113 116 119
27 27 29 30 30 30 32 35 37 40 46 47 48 48 48 45 39 45 53 55 57 57 60 65 68 86 92 88 91 95 97 96 96 97 101 105 107 109 112 114 118 121 123
29 29 28 33 36 32 32 29 29 34 42 49 52 52 47 47 48 53 56 63 69 72 75 79 87 91 93 96 97 98 97 98 101 105 106 108 111 115 119 122 124 127 128
31 35 42 43 39 38 36 39 33 32 38 46 48 47 45 51 55 62 64 67 72 76 82 87 90 92 95 98 98 97 101 104 107 109 110 114 117 123 125 128 129 124 118
33 36 43 47 48 43 37 34 35 42 43 42 65 66 69 70 68 65 69 71 74 77 81 87 92 97 99 101 105 109 111 114 115 116 119 123 127 130 130 128 121 111 106
39 49 48 52 50 43 35 43 38 38 44 61 66 68 74 75 78 77 76 80 84 89 93 94 99 102 105 109 112 114 119 122 122 125 129 132 130 123 116 107 104 103 101
54 51 40 54 64 60 56 61 67 68 71 74 82 87 81 82 83 86 88 91 91 99 102 103 107 110 113 119 119 122 127 132 135 137 132 125 113 110 106 103 101 100 98
50 48 58 71 68 66 70 70 70 72 73 77 76 80 85 89 93 97 101 106 104 109 108 114 118 121 125 125 130 132 135 138 136 130 120 115 112 104 99 98 98 96 94
Wind_Direction
82 100 93 103 136 157 151 169 168 167 174 178 178 181 185 190 195 197 194 200 200 209 212 215 218 220 224 229 237 245 250 253 256 259 262 266 269 272 275 277 280 284 287
78 109 115 115 141 164 161 161 176 174 179 183 181 188 194 195 187 190 205 214 222 221 228 230 233 238 241 246 252 263 266 270 270 274 275 276 279 282 282 284 284 285 289
90 95 118 135 142 165 167 169 179 183 179 188 197 207 204 204 211 215 222 229 227 235 238 239 243 247 253 260 261 265 267 270 275 278 277 276 278 282 284 288 292 292 293
149 123 108 120 151 160 163 170 173 189 196 206 207 214 213 217 230 235 239 244 247 251 252 252 254 258 260 262 266 266 266 267 269 272 276 281 285 289 292 291 290 291 293
181 171 147 135 129 156 174 176 178 183 190 196 206 213 221 226 233 237 243 246 245 245 243 242 245 250 254 261 267 270 271 272 277 282 286 287 289 289 286 287 285 288 293
133 199 195 174 171 157 158 148 161 179 173 174 174 183 200 204 204 208 211 219 231 238 238 246 255 260 263 266 272 277 283 286 286 286 290 292 291 290 292 297 297 296 297
84 136 185 194 193 193 187 183 176 182 184 179 180 185 188 202 223 220 223 230 235 243 249 252 258 264 269 274 276 278 281 286 287 289 291 296 298 298 301 300 300 300 302
343 195 172 179 200 209 208 207 212 210 209 210 214 211 216 219 212 212 219 224 232 244 255 262 265 267 276 280 282 285 289 287 281 288 294 298 301 301 302 302 303 305 308
255 274 256 225 203 194 184 179 185 198 210 213 203 197 194 210 222 228 229 237 247 269 280 278 276 273 270 270 275 279 286 287 289 294 300 302 300 300 300 301 303 306 308
237 249 250 238 230 222 213 206 199 190 190 204 214 217 222 231 239 243 243 258 269 280 293 288 284 279 278 279 285 287 289 288 291 295 297 300 302 302 301 301 302 304 307
242 239 248 240 236 236 239 239 232 227 229 231 231 233 243 244 243 251 259 261 280 289 295 299 296 288 285 286 288 293 291 289 295 298 299 300 301 303 306 306 305 306 306
240 240 241 241 233 235 242 242 239 234 228 220 231 242 252 241 233 249 262 276 285 294 301 298 298 297 296 294 292 291 296 298 298 298 299 301 303 305 306 307 307 307 306
251 248 226 238 241 227 232 238 240 241 238 237 226 242 240 238 249 263 272 281 290 293 294 295 295 295 298 301 301 301 301 299 298 299 303 307 308 307 307 307 307 308 308
245 252 247 219 225 239 233 237 239 243 245 242 242 252 261 268 273 278 282 288 292 293 292 294 297 300 301 300 300 300 301 301 304 306 308 309 309 307 307 308 309 309 310
241 244 245 247 239 236 244 251 255 257 261 263 265 267 270 274 280 283 286 287 289 292 295 297 298 300 301 301 303 303 303 301 302 306 308 308 308 308 308 309 310 310 312
243 243 245 251 255 254 253 254 259 263 265 268 270 271 275 279 281 282 287 288 290 292 293 292 293 294 296 301 301 302 303 304 305 306 306 308 308 309 308 309 312 312 313
247 250 251 252 255 259 261 260 260 259 260 262 264 268 270 273 277 288 292 295 291 289 292 290 291 294 296 302 304 308 309 308 309 309 310 310 309 309 311 314 314 315 314
250 249 249 250 253 258 262 265 267 266 267 272 276 276 276 277 281 284 288 288 290 286 283 288 290 295 299 302 306 308 309 309 309 310 311 311 310 312 313 314 314 312 312
263 260 258 258 258 261 264 269 272 274 280 281 278 276 276 280 284 277 278 277 274 284 281 286 291 301 305 304 305 306 307 308 309 311 311 310 312 313 314 313 311 312 312
267 272 266 262 261 265 262 267 273 277 275 272 275 276 275 287 276 280 281 270 272 271 282 284 286 299 302 302 303 306 305 306 309 310 311 313 313 313 311 310 311 310 310
263 266 277 276 266 261 255 260 277 275 271 268 267 272 284 284 280 290 277 275 280 278 281 289 290 293 297 299 302 303 305 308 309 312 313 312 312 310 309 309 309 309 308
261 268 274 275 278 275 269 266 270 279 278 276 263 262 273 289 282 280 283 281 279 278 280 284 291 296 298 300 300 303 305 306 308 310 312 312 309 308 308 307 307 305 305
258 266 269 272 275 275 266 267 269 269 269 261 268 271 274 282 285 283 284 287 291 295 297 296 296 297 298 301 304 305 307 308 310 311 311 308 307 307 306 304 304 304 302
255 257 272 268 264 265 251 261 262 266 254 252 264 277 279 283 292 293 293 294 295 299 299 299 299 302 304 305 306 306 308 311 310 308 307 309 307 303 304 303 300 299 299
233 247 232 240 269 261 260 272 279 278 276 274 276 276 282 286 292 295 295 295 294 298 300 300 302 303 305 307 309 308 309 309 308 309 306 305 305 305 303 302 301 301 300
227 225 238 257 260 263 271 276 282 283 285 282 284 288 291 294 296 294 293 296 298 300 301 304 306 307 308 307 307 307 307 306 307 306 304 304 303 302 300 300 300 300 301
Height
10669 10669 10668 10666 10666 10672 10676 10679 10682 10685 10689 10693 10696 10701 10705 10709 10714 10719 10724 10728 10733 10736 10740 10744 10748 10750 10752 10755 10756 10757 10758 10759 10759 10758 10757 10754 10751 10748 10747 10743 10740 10736 10732
10672 10672 10674 10674 10674 10676 10679 10682 10686 10689 10694 10697 10700 10704 10707 10710 10714 10718 10724 10729 10733 10736 10739 10741 10743 10746 10747 10748 10749 10748 10748 10748 10747 10745 10743 10741 10737 10734 10733 10730 10727 10723 10720
10676 10676 10677 10679 10681 10682 10682 10685 10688 10692 10695 10699 10703 10705 10708 10712 10716 10720 10724 10727 10730 10734 10736 10737 10739 10741 10742 10740 10740 10740 10739 10737 10736 10734 10731 10729 10728 10727 10727 10722 10714 10709 10707
10680 10680 10680 10681 10683 10685 10686 10688 10691 10694 10696 10699 10702 10705 10709 10713 10716 10719 10722 10724 10725 10727 10730 10731 10732 10732 10731 10730 10730 10731 10731 10730 10728 10726 10724 10722 10719 10716 10714 10711 10706 10701 10698
10681 10683 10683 10685 10685 10686 10688 10690 10692 10695 10697 10700 10702 10705 10708 10711 10714 10716 10718 10720 10721 10722 10723 10723 10724 10724 10724 10723 10723 10722 10722 10722 10719 10717 10716 10713 10710 10707 10704 10701 10700 10694 10690
10681 10683 10685 10687 10688 10689 10690 10690 10692 10693 10695 10698 10700 10703 10706 10708 10710 10712 10714 10714 10715 10716 10718 10720 10720 10721 10721 10721 10719 10717 10715 10713 10712 10710 10709 10707 10704 10699 10696 10692 10689 10685 10680
10680 10682 10684 10687 10689 10690 10691 10692 10694 10695 10697 10698 10700 10702 10704 10706 10708 10708 10709 10711 10713 10715 10716 10716 10716 10717 10717 10716 10715 10713 10711 10709 10707 10705 10703 10700 10697 10693 10687 10681 10676 10670 10665
10681 10682 10683 10685 10686 10688 10689 10691 10692 10694 10696 10698 10699 10701 10703 10704 10705 10706 10708 10709 10711 10712 10712 10712 10712 10712 10711 10710 10709 10707 10706 10704 10702 10699 10696 10691 10686 10681 10674 10669 10663 10656 10649
10680 10682 10682 10684 10685 10686 10687 10689 10690 10692 10694 10695 10697 10699 10701 10702 10703 10704 10705 10706 10707 10708 10708 10707 10707 10706 10705 10704 10703 10701 10698 10695 10692 10688 10684 10679 10673 10668 10662 10656 10649 10643 10635
10679 10680 10682 10683 10685 10687 10688 10689 10690 10692 10693 10694 10696 10698 10699 10700 10701 10702 10703 10703 10704 10704 10703 10702 10701 10700 10698 10697 10695 10692 10688 10684 10680 10676 10671 10666 10659 10653 10647 10639 10632 10626 10619
10677 10679 10680 10683 10684 10686 10687 10688 10689 10690 10692 10693 10694 10696 10697 10698 10698 10699 10698 10698 10698 10697 10696 10695 10693 10692 10690 10688 10685 10682 10678 10674 10669 10664 10658 10651 10643 10635 10630 10623 10615 10607 10598
10675 10676 10678 10680 10682 10683 10684 10685 10686 10688 10690 10691 10692 10692 10692 10693 10693 10692 10692 10692 10691 10690 10689 10686 10684 10682 10680 10678 10676 10673 10669 10664 10659 10652 10645 10638 10628 10619 10610 10602 10596 10587 10578
10671 10673 10676 10676 10677 10680 10681 10682 10684 10686 10687 10687 10687 10687 10687 10687 10687 10686 10686 10686 10685 10683 10680 10677 10675 10673 10671 10668 10663 10660 10657 10651 10646 10640 10633 10625 10614 10602 10589 10578 10571 10564 10554
10670 10670 10670 10672 10675 10676 10678 10679 10680 10681 10681 10682 10682 10682 10682 10682 10682 10681 10681 10680 10678 10674 10671 10667 10664 10662 10659 10656 10652 10646 10641 10635 10629 10622 10616 10607 10596 10585 10574 10561 10549 10540 10531
10666 10667 10667 10667 10670 10673 10674 10675 10677 10677 10677 10677 10677 10678 10677 10677 10677 10676 10675 10671 10667 10663 10659 10654 10650 10646 10642 10639 10635 10630 10626 10621 10615 10607 10598 10588 10578 10567 10557 10547 10535 10522 10511
10658 10660 10662 10663 10665 10667 10669 10671 10671 10671 10671 10671 10671 10670 10670 10669 10670 10669 10667 10663 10657 10653 10649 10643 10638 10634 10630 10626 10622 10617 10610 10603 10596 10589 10580 10570 10559 10549 10537 10528 10516 10502 10488
10650 10652 10655 10657 10658 10659 10661 10662 10663 10664 10663 10662 10662 10662 10661 10659 10657 10657 10652 10649 10643 10639 10635 10630 10625 10621 10617 10612 10607 10600 10590 10582 10574 10566 10556 10547 10536 10526 10515 10502 10487 10474 10462
10643 10644 10646 10647 10648 10650 10650 10650 10651 10652 10651 10652 10653 10650 10648 10646 10644 10641 10638 10635 10630 10626 10623 10617 10610 10605 10599 10592 10586 10580 10571 10561 10552 10542 10532 10522 10511 10501 10490 10477 10464 10452 10437
10635 10638 10639 10639 10641 10640 10640 10641 10641 10642 10641 10640 10640 10638 10636 10636 10634 10629 10628 10622 10618 10612 10607 10602 10598 10591 10585 10577 10568 10560 10552 10542 10532 10521 10509 10499 10487 10474 10463 10451 10437 10423 10409
10627 10630 10631 10631 10631 10632 10631 10630 10631 10630 10629 10627 10625 10624 10622 10621 10619 10618 10613 10609 10600 10596 10594 10590 10583 10576 10567 10559 10552 10543 10533 10522 10511 10499 10487 10475 10461 10449 10438 10426 10413 10398 10384
10618 10621 10622 10622 10621 10622 10622 10621 10619 10617 10614 10612 10612 10611 10609 10607 10606 10605 10601 10597 10594 10587 10582 10575 10564 10556 10549 10541 10532 10522 10511 10498 10486 10476 10464 10452 10439 10424 10411 10399 10384 10369 10356
10609 10610 10610 10611 10610 10610 10611 10610 10608 10605 10603 10602 10602 10598 10596 10595 10592 10588 10585 10582 10577 10570 10562 10553 10544 10534 10525 10518 10509 10499 10488 10475 10464 10452 10440 10428 10415 10399 10384 10370 10356 10340 10324
10598 10597 10595 10597 10599 10600 10599 10600 10598 10596 10593 10590 10581 10583 10580 10579 10575 10570 10565 10560 10553 10546 10540 10532 10523 10511 10500 10489 10479 10467 10455 10443 10431 10418 10409 10398 10386 10370 10354 10338 10321 10307 10293
10583 10587 10586 10582 10584 10589 10587 10587 10589 10588 10583 10574 10566 10566 10564 10560 10554 10547 10541 10535 10527 10519 10510 10502 10494 10485 10474 10465 10452 10437 10425 10413 10402 10390 10378 10363 10350 10332 10316 10303 10289 10274 10261
10579 10577 10573 10567 10570 10572 10572 10571 10570 10568 10568 10563 10555 10549 10544 10539 10534 10527 10519 10513 10504 10495 10485 10475 10464 10455 10444 10433 10420 10406 10393 10380 10368 10354 10339 10323 10308 10294 10280 10267 10254 10243 10232
10560 10560 10561 10553 10554 10557 10554 10551 10548 10546 10542 10538 10534 10528 10523 10517 10511 10505 10496 10487 10476 10467 10456 10445 10433 10421 10410 10397 10385 10372 10360 10347 10332 10317 10301 10287 10273 10260 10250 10238 10227 10217 10206